Location: *
(53.9002°N, 27.5624°E)
Time: 20:55:49
(UTC+00:00)

Cosmos 2227 Rocket - Pass Details

Date: 12 November 2019
Orbit: 838 x 846 km, 71.0° (Epoch: 05 December)

Event Time Altitude Azimuth Distance (km) Brightness Sun altitude
Rises 15:54:36 0° 327° (NNW) 3,419 5.7 -14.3°
Reaches altitude 10° 15:57:03 10° 328° (NNW) 2,480 4.9 -14.7°
Maximum altitude 16:02:46 83° 57° (ENE) 859 2.1 -15.5°
Drops below altitude 10° 16:08:27 10° 146° (SE) 2,461 4.4 -16.4°
Sets 16:10:53 0° 147° (SSE) 3,391 5.1 -16.7°
